Location: Newark
(52.0178°N, 4.7453°W)
Time: 14:42:46
(UTC+00:00)

ISS - Pass Details

Date: 25 March 2019
Orbit: 408 x 410 km, 51.6° (Epoch: 25 April)

Event Time Altitude Azimuth Distance (km) Brightness Sun altitude
Rises 19:10:27 0° 221° (SW) 2,328 0.5 -5.4°
Reaches altitude 10° 19:12:43 10° 208° (SSW) 1,469 -0.7 -5.8°
Maximum altitude 19:15:33 26° 149° (SSE) 835 -2.6 -6.2°
Drops below altitude 10° 19:18:23 10° 90° (E) 1,475 -1.6 -6.6°
Enters shadow 19:18:44 - 87° (E) 1,604 -1.4 -6.7°
